Regional Weather Roundup
Issued by NWS Northern Indiana

Home | Current Version | Previous Version | Graphics & Text | Print | Product List | Glossary On
Versions: 1 2 3 4 5 6 7 8 9 10 11 12 13 14 15 16 17 18 19 20 21 22 23 24 25 26 27 28 29 30 31 32 33 34 35 36 37 38 39 40 41 42 43 44 45 46 47 48 49 50
932
ASUS43 KIWX 040810
RWRIWX

KIWX WEATHER ROUNDUP
NATIONAL WEATHER SERVICE NORTHERN INDIANA
300 AM EST SUN DEC 04 2016

NOTE: "FAIR" INDICATES FEW OR NO CLOUDS BELOW 12,000 FEET WITH NO
SIGNIFICANT WEATHER AND/OR OBSTRUCTIONS TO VISIBILITY.

* THESE STATIONS ARE NOT UNDER NWS QUALITY CONTROL. THEY ALSO MAY NOT
  REPORT WEATHER SUCH AS PRECIPITATION OR FOG.

INZ001>027-040900-
NORTHERN INDIANA

CITY           SKY/WX    TMP DP  RH WIND       PRES   REMARKS
GARY*          CLOUDY    32  28  86 CALM      30.25F
VALPARAISO     CLOUDY    31  25  78 E3        30.24F
MICHIGAN CITY* CLOUDY    32  27  80 CALM      30.24F
LAPORTE*       CLOUDY    32  32 100 CALM      30.24F
KNOX*          CLOUDY    30  16  55 CALM      30.25F
SOUTH BEND     CLOUDY    31  25  78 CALM      30.26F
GOSHEN         CLOUDY    31  26  82 CALM      30.26S
MONTICELLO*    MOCLDY    33  24  71 E3        30.24F
LOGANSPORT*    CLOUDY    32  28  86 E6        30.26F WCI  26
ROCHESTER*     MOCLDY    32  32 100 E3        30.25F
WARSAW*        CLOUDY    30  27  86 CALM      30.26R
ANGOLA*        CLOUDY    32  28  86 CALM      30.25R
FORT WAYNE     CLOUDY    33  28  81 E3        30.26F
HUNTINGTON*    CLOUDY    32  27  81 CALM      30.25F
PERU/GRISSOM   CLOUDY    31  27  84 E5        30.24S WCI  27
MARION*        CLOUDY    31  30  94 CALM      30.25F

$$
INZ028>050-040900-
CENTRAL INDIANA

CITY           SKY/WX    TMP DP  RH WIND       PRES   REMARKS
LAFAYETTE      MOCLDY    32  28  85 E7        30.24F WCI  26
KOKOMO*        CLOUDY    31  28  89 NE3       30.26F
MUNCIE*        CLOUDY    33  30  88 CALM      30.24F
INDIANAPOLIS   CLOUDY    34  28  79 E6        30.23F WCI  29

$$
MIZ043>046-050>051-056>058-064>065-071>073-077>080-040900-
SOUTHWEST LOWER MICHIGAN

CITY           SKY/WX    TMP DP  RH WIND       PRES   REMARKS
BATTLE CREEK   CLOUDY    34  27  75 CALM      30.25F
BENTON HARBOR  CLOUDY    34  25  69 S6        30.25S WCI  29
COLDWATER*     CLOUDY    33  27  80 CALM      30.26R
HILLSDALE*     CLOUDY    32  27  80 CALM      30.23S
HOLLAND        CLOUDY    34  28  79 S7        30.24F WCI  28
GRAND RAPIDS   CLOUDY    34  27  75 S5        30.25S WCI  30
KALAMAZOO      CLOUDY    34  25  69 SW5       30.25S WCI  30
STURGIS*       CLOUDY    32  28  86 CALM      30.24S
THREE RIVERS*  CLOUDY    32  29  88 CALM      30.26S

$$
OHZ001>008-015>018-024>025-040900-
NORTHWEST OHIO

CITY           SKY/WX    TMP DP  RH WIND       PRES   REMARKS
WAUSEON*       CLOUDY    34  27  75 CALM      30.27R
DEFIANCE       CLOUDY    35  26  69 CALM      30.28S
FINDLAY        CLOUDY    34  26  72 SE3       30.26F
TOLEDO EXPRESS CLOUDY    33  28  81 S3        30.27S
TOLEDO METCALF CLOUDY    35  31  85 S3        30.29R
LIMA           CLOUDY    33  28  81 E3        30.26S

$$
AND FOR LAKE MICHIGAN COASTAL AND OPEN LAKE BUOY OBSERVATIONS

STATION/POSITION TEMP    WIND        PRES    VSBY  WAVE
                 AIR SEA DIR/SP/G                  HT/PER
                 (F)     (DEG/KT/KT) (MB)    (MI)  (FT/S)
CALUMET HARBOR    32     230/  4/  5 1023.6F
MICHIGAN CITY     32     120/  5/  6   N/A
BURNS HARBOR      33     180/  5/  7 1024.4F
SAINT JOSEPH      34     160/  3/  7 1024.7
SOUTH LAKE BUOY   36 48  230/  2/  4 1024.3F         1

$$
&&




USA.gov is the U.S. government's official web portal to all federal, state and local government web resources and services.